Location: Moena
(46.3667°N, 11.6500°E)
Time: 16:49:50
(UTC+00:00)

Cosmos 1777 Rocket - Pass Details

Date: 03 March 2021
Orbit: 759 x 775 km, 74.0° (Epoch: 15 April)

Event Time Altitude Azimuth Distance (km) Brightness Sun altitude
Rises 18:27:59 0° 342° (NNW) 3,249 7.6 -15.5°
Reaches altitude 10° 18:30:28 10° 348° (NNW) 2,316 6.7 -15.9°
Maximum altitude 18:35:33 48° 62° (ENE) 1,000 4.2 -16.8°
Enters shadow 18:38:02 27° 121° (ESE) 1,429 4.9 -17.2°
